Location: Boss Branch
(32.3799°N, 97.2508°W)
Time: 00:30:15
(UTC+00:00)

JUGNU - Pass Details

Date: 13 December 2024
Orbit: 834 x 861 km, 20.0° (Epoch: 19 January)

Event Time Altitude Azimuth Distance (km) Brightness Sun altitude
Exits shadow 12:27:29 - 245° (WSW) 2,989 ? -11.4°
Reaches altitude 10° 12:29:35 10° 233° (SW) 2,427 ? -11.0°
Maximum altitude 12:33:24 18° 191° (S) 1,920 ? -10.2°
Drops below altitude 10° 12:37:14 10° 150° (SSE) 2,425 ? -9.5°
Sets 12:40:34 0° 131° (SE) 3,360 ? -8.8°
